Location: Gerlach
(40.6516°N, 119.3568°W)
Time: 04:38:03
(UTC-07:00)

Explorer 11/Cluster Stage 4 - Pass Details

Date: 30 January 2023
Orbit: 466 x 1241 km, 28.8° (Epoch: 02 April)

Event Time Altitude Azimuth Distance (km) Brightness Sun altitude
Rises 06:09:46 0° 226° (SW) 4,149 10.0 -11.5°
Reaches altitude 10° 06:13:17 10° 213° (SSW) 3,198 9.5 -10.9°
Maximum altitude 06:19:29 24° 164° (SSE) 2,254 9.3 -9.8°
Drops below altitude 10° 06:25:23 10° 113° (ESE) 3,031 11.2 -8.7°
Sets 06:28:37 0° 101° (E) 3,890 12.5 -8.1°
